Location: Moschelm�hle
(49.2771°N, 7.6320°E)
Time: 16:41:27
(UTC+00:00)

Daily predictions for brighter satellites

Satellite Brightness Start Highest point End
(mag) Time Altitude Azimuth Time Altitude Azimuth Time Altitude Azimuth
Cosmos 921 Rocket 4.3 18:37:35 10° N 18:40:59 23° ENE 18:44:21 10° ESE
STARLINK-1143 4.3 18:37:32 10° WNW 18:41:35 49° N 18:45:37 10° ENE
Cosmos 2315 Rocket 4.3 18:35:15 10° SSW 18:41:35 78° W 18:48:01 10° N
GEOS 3 Rocket 4.1 18:38:02 10° SSE 18:43:07 61° SW 18:48:20 10° NW
Aureole 3 4.2 18:38:51 10° S 18:43:47 83° E 18:50:08 10° NNE
ARGOS Delta rocket 4.2 18:38:50 10° SSE 18:44:11 90° WSW 18:49:43 10° NNW
STARLINK-1233 3.5 18:41:17 10° WNW 18:44:20 48° NNE 18:47:24 10° E
STARLINK-1234 3.3 18:41:25 10° WNW 18:44:28 53° NNE 18:47:29 10° E
STARLINK-1209 3.2 18:41:49 10° WNW 18:44:47 54° NNE 18:47:44 10° E
STARLINK-1212 3.5 18:41:44 10° WNW 18:44:48 48° NNE 18:47:51 10° E
Cosmos 407 Rocket 4.3 18:40:31 10° SSE 18:44:51 28° E 18:49:11 10° NE
STARLINK-1105 3.5 18:42:11 10° WNW 18:45:15 48° NNE 18:48:19 10° E
STARLINK-1206 3.5 18:42:40 10° WNW 18:45:43 48° NNE 18:48:45 10° E
STARLINK-1247 3.5 18:43:06 10° WNW 18:46:10 48° NNE 18:49:12 10° E
STARLINK-1227 3.5 18:43:31 10° WNW 18:46:36 49° NNE 18:49:40 10° E
STARLINK-1241 4.3 18:42:34 10° WNW 18:46:37 50° N 18:50:40 10° E
STARLINK-1218 3.5 18:44:01 10° WNW 18:47:04 49° NNE 18:50:07 10° E
STARLINK-1226 3.5 18:44:27 10° WNW 18:47:31 49° NNE 18:50:35 10° E
STARLINK-1254 3.5 18:44:53 10° WNW 18:47:57 49° NNE 18:51:02 10° E
IRIDIUM 106 4.3 18:43:01 10° N 18:48:16 72° E 18:53:28 10° S
STARLINK-1215 3.5 18:45:22 10° WNW 18:48:25 49° NNE 18:51:29 10° E
Cosmos 2228 3.5 18:44:28 10° SSE 18:48:29 39° E 18:52:32 10° NNE
STARLINK-1231 3.5 18:45:49 10° WNW 18:48:52 49° NNE 18:51:55 10° E
Cosmos 1758 Rocket 3.5 18:44:40 10° N 18:49:01 75° ENE 18:53:20 10° SSE
STARLINK-1232 3.5 18:46:44 10° WNW 18:49:47 50° NNE 18:52:50 10° E
STARLINK-1217 3.5 18:47:10 10° WNW 18:50:13 50° NNE 18:53:17 10° E
STARLINK-1208 3.5 18:47:35 10° WNW 18:50:40 50° NNE 18:53:44 10° E
SPOT 3 Rocket 4.0 18:45:49 10° SE 18:50:43 43° ENE 18:55:39 10° N
Cosmos 1461 3.5 18:46:36 10° NNW 18:50:59 49° NE 18:55:30 10° ESE
STARLINK-1229 3.4 18:48:04 10° WNW 18:51:07 50° NNE 18:54:11 10° E
STARLINK-1271 3.4 18:48:30 10° WNW 18:51:34 50° NNE 18:54:38 10° E
STARLINK-1239 4.3 18:47:31 10° WNW 18:51:34 50° N 18:55:37 10° E
Cosmos 1603 3.7 18:46:10 10° SSW 18:51:48 85° ESE 18:57:27 10° NNE
STARLINK-1270 3.4 18:48:59 10° WNW 18:52:02 50° NNE 18:55:06 10° E
STARLINK-1154 3.4 18:49:25 10° WNW 18:52:29 51° NNE 18:55:33 10° E
Aureole 1 Rocket 4.5 18:46:18 10° S 18:53:13 42° ESE 18:58:46 10° NE
STARLINK-1197 3.4 18:50:20 10° WNW 18:53:24 51° NNE 18:56:27 10° E
STARLINK-1189 3.4 18:50:47 10° WNW 18:53:51 51° NNE 18:56:52 10° E
STARLINK-1198 3.4 18:51:13 10° WNW 18:54:18 51° NNE 18:57:18 10° E
STARLINK-1188 3.4 18:51:41 10° WNW 18:54:45 52° NNE 18:57:44 10° E
STARLINK-1235 3.2 18:52:18 10° WNW 18:55:26 58° NNE 18:58:22 11° E
STARLINK-1187 3.3 18:52:45 10° WNW 18:55:52 55° NNE 18:58:50 11° E
STARLINK-1240 4.3 18:52:32 10° WNW 18:56:36 51° N 19:00:39 10° E
STARLINK-1199 3.4 18:53:36 10° WNW 18:56:42 53° NNE 18:59:39 11° E
Cosmos 1953 Rocket 3.8 18:52:31 10° N 18:56:55 53° ENE 19:01:19 10° SSE
STARLINK-1191 3.4 18:54:05 10° WNW 18:57:10 53° NNE 19:00:06 11° E
SJ-6B 3.0 18:53:06 10° SSE 18:57:10 63° ENE 19:01:17 10° N
STARLINK-1210 3.4 18:54:31 10° WNW 18:57:37 53° NNE 19:00:31 11° E
STARLINK-1221 3.4 18:54:58 10° WNW 18:58:05 53° NNE 19:00:58 11° E
Cosmos 2074 Rocket 4.0 18:52:07 10° N 18:58:27 83° E 19:04:45 10° S
STARLINK-1219 3.4 18:55:25 10° WNW 18:58:31 54° NNE 19:01:23 12° E
STARLINK-1222 3.3 18:55:52 10° WNW 18:58:58 54° NNE 19:01:49 12° E
STARLINK-60 3.8 18:56:03 10° SSW 18:58:59 31° SE 19:01:56 10° E
STARLINK-1211 3.3 18:56:19 10° WNW 18:59:25 54° NNE 19:02:15 12° E
Cosmos 1606 Rocket 3.7 18:55:08 10° S 18:59:27 54° E 19:03:50 10° NNE
ATLAS 5 CENTAUR R/B 2.5 18:56:13 10° S 18:59:38 25° ESE 19:03:21 10° ENE
STARLINK-1214 3.3 18:56:46 10° WNW 18:59:52 54° NNE 19:02:41 12° E
STARLINK-1245 3.3 18:57:16 10° WNW 19:00:21 54° NNE 19:03:07 12° E
STARLINK-1238 3.3 18:57:40 10° WNW 19:00:46 55° NNE 19:03:34 12° E
ADEOS Rocket 4.1 18:54:39 10° N 19:00:54 51° WNW 19:06:32 10° SW
STARLINK-1216 4.2 18:57:32 10° WNW 19:01:37 51° N 19:05:40 10° E
STARLINK-1205 3.3 18:58:37 10° WNW 19:01:42 55° NNE 19:04:25 13° E
STARLINK-1204 3.3 18:59:04 10° WNW 19:02:09 55° NNE 19:04:50 13° E
Meteor 1-16 Rocket 4.1 18:58:36 10° S 19:03:59 71° E 19:09:35 10° NNE
Cosmos 1818 3.5 18:59:06 10° SSW 19:04:31 74° SE 19:09:59 10° NE
STARLINK-1237 4.2 19:02:31 10° WNW 19:06:35 52° N 19:10:31 11° E
Abrixas rocket 1.9 19:06:23 10° W 19:09:20 70° S 19:11:30 17° ESE
Cosmos 1943 Rocket 4.1 19:06:17 10° NW 19:10:58 28° WSW 19:15:39 10° SSW
STARLINK-1202 4.2 19:07:31 10° WNW 19:11:36 53° N 19:15:18 12° E
NOSS 3-4 (A) 3.9 19:06:05 10° NW 19:13:02 89° SW 19:20:34 11° SE
NOSS 3-4 (C) 3.9 19:06:11 10° NW 19:13:09 89° SW 19:20:39 11° SE
Cosmos 1610 Rocket 4.4 19:08:50 10° N 19:15:03 74° E 19:21:11 10° SSE
FALCON 9 DEB 4.4 19:16:15 10° SSW 19:19:02 23° SE 19:20:15 19° ESE
Cosmos 1300 3.9 19:17:23 16° SE 19:19:19 23° E 19:22:23 10° NE
SL-4 R/B 1.5 19:16:15 10° WSW 19:19:37 64° SSE 19:22:39 13° ENE
Cosmos 2369 Rocket 3.9 19:15:39 10° NW 19:20:37 32° WSW 19:25:33 10° SSW
STARLINK-1246 4.1 19:17:31 10° WNW 19:21:37 55° N 19:24:53 15° E
STARLINK-1203 4.1 19:18:09 10° WNW 19:22:18 57° NNE 19:25:34 16° E
MOS 1 Rocket 4.0 19:17:11 10° NNE 19:22:19 43° E 19:27:30 10° SSE
NOSS 3-3 (A) 4.5 19:17:14 10° SW 19:23:12 66° NW 19:30:01 10° NE
NOSS 3-3 (C) 4.4 19:17:20 10° SW 19:23:17 67° NW 19:30:07 10° NE
STARLINK-1201 3.1 19:20:10 10° WNW 19:23:26 68° NNE 19:25:27 21° E
Cosmos 1340 Rocket 3.0 19:19:54 10° S 19:23:48 48° E 19:27:42 10° NNE
CZ-2C R/B 3.8 19:20:07 10° NNE 19:24:48 60° ESE 19:29:22 10° S
Cosmos 1703 3.5 19:21:15 10° NNW 19:25:13 71° W 19:29:10 10° S
Cosmos 1328 4.0 19:21:51 10° NNW 19:25:52 73° W 19:29:51 10° S
STARLINK-67 2.6 19:23:30 10° WNW 19:26:02 58° SSW 19:27:10 27° SE
STARLINK-1224 4.0 19:22:29 10° WNW 19:26:35 57° NNE 19:29:39 17° E
H-2A R/B 2.8 19:21:33 10° S 19:26:38 52° W 19:31:35 10° NNW
CZ-2C R/B 3.7 19:24:38 10° S 19:29:23 52° W 19:34:03 10° NNW
STARLINK-1225 4.0 19:27:29 10° WNW 19:31:36 58° NNE 19:34:27 19° E
STARLINK-1230 4.0 19:32:29 10° WNW 19:36:36 60° NNE 19:39:14 21° E
SL-08 RB Rocket 4.2 19:32:51 10° S 19:37:22 63° WSW 19:41:58 10° NNW
Cosmos 1908 3.4 19:33:37 10° SSW 19:37:28 75° W 19:41:24 10° N
STARLINK-52 3.9 19:34:45 10° SSW 19:37:28 27° SE 19:37:28 27° SE
Resurs 1-3 3.6 19:37:17 12° SSE 19:41:23 89° WSW 19:45:48 10° NNW
STARLINK-1243 3.9 19:37:27 10° WNW 19:41:35 62° NNE 19:44:00 23° E
USA 234 3.9 19:36:13 10° ENE 19:41:53 31° SE 19:47:33 10° S
SeaSat 1 4.2 19:38:51 10° NNE 19:43:19 35° NW 19:47:45 10° WSW
Iridium 4 Rocket 4.1 19:40:40 10° NNE 19:44:12 25° ENE 19:44:57 24° E
ATLAS 2AS CENTAUR R/B 3.3 19:37:48 10° NW 19:45:16 60° WSW 19:51:22 13° SSE
STARLINK-1228 2.8 19:43:25 10° WNW 19:46:20 63° SSW 19:47:05 42° SSE
STARLINK-1236 3.8 19:42:26 10° WNW 19:46:34 64° NNE 19:48:47 26° E
Cosmos 1943 4.2 19:42:23 10° SW 19:47:54 50° NW 19:53:27 10° NNE
CZ-4C R/B 4.0 19:44:56 10° NW 19:50:45 31° NNE 19:56:49 12° E
Cosmos 1140 Rocket 3.4 19:47:13 10° SSW 19:52:24 75° ESE 19:57:34 10° NNE
Cosmos 2341 Rocket 4.0 19:48:07 10° N 19:54:33 79° E 19:59:56 15° SSE
STARLINK-1269 3.7 19:52:23 10° WNW 19:56:32 69° NNE 19:58:20 32° E
Cosmos 1190 Rocket 4.0 19:53:32 10° SSW 19:58:50 87° WNW 20:04:10 10° NNE
Cosmos 2058 Rocket 3.3 19:54:54 10° SSW 19:59:25 74° W 20:03:56 10° N
Spot 2 Rocket 3.7 19:56:54 28° SE 19:59:26 55° ENE 20:04:26 10° N
DMSP B5D2-2 4.0 19:54:51 10° NNE 20:00:07 90° WNW 20:05:22 10° SSW
Landsat 7 4.4 19:58:57 30° ESE 20:00:38 41° ENE 20:05:06 10° N
CZ-2C R/B 2.4 19:55:35 10° NNE 20:00:47 80° ESE 20:06:00 10° SSW
COSMOS 2455 2.9 19:55:25 10° NW 20:01:27 78° WSW 20:05:11 24° SSE
STARLINK-1200 3.7 19:57:22 10° WNW 20:01:32 72° NNE 20:03:07 36° E
Cosmos 1697 Rocket 4.0 19:56:45 10° NNW 20:01:32 27° NE 20:04:03 20° E
Cosmos 1408 4.3 19:59:56 10° NNE 20:02:18 19° ENE 20:02:18 19° ENE
STARLINK-1192 3.6 20:02:21 10° WNW 20:06:31 75° NNE 20:07:54 40° E
IGS 5A 3.9 20:06:53 37° E 20:07:41 42° ENE 20:11:37 10° N
Iridium 2 3.8 20:07:49 48° SE 20:08:26 54° E 20:12:10 10° NNE
Cosmos 2218 Rocket 4.0 20:02:42 10° N 20:08:54 65° ENE 20:12:17 28° SSE
Resurs 01 Rocket 1.9 20:08:30 21° S 20:11:23 64° WSW 20:15:48 10° NNW
STARLINK-1244 3.6 20:07:19 10° WNW 20:11:30 78° NNE 20:12:41 45° E
ERBS 2.5 20:08:37 10° NW 20:11:58 57° NNE 20:12:22 52° ENE
BREEZE-M DEB (TANK) 1.6 20:12:05 10° W 20:15:11 66° W 20:15:11 66° W
ATLAS CENTAUR R/B 3.0 20:12:41 10° NNW 20:15:41 20° NNE 20:16:45 18° NE
Cosmos 468 Rocket 4.1 20:11:15 10° NNW 20:16:23 59° ENE 20:18:01 40° ESE
STARLINK-1138 3.6 20:12:19 10° WNW 20:16:29 82° NNE 20:17:28 51° ESE
Cosmos 921 Rocket 4.0 20:15:29 10° NNW 20:19:26 41° WSW 20:21:45 21° SSW
STARLINK-1234 3.9 20:17:13 10° WNW 20:19:48 36° SW 20:19:48 36° SW
STARLINK-1209 4.0 20:17:20 10° WNW 20:19:44 33° SW 20:19:44 33° SW
STARLINK-1233 3.5 20:17:08 10° WNW 20:19:56 47° SW 20:19:56 47° SW
STARLINK-1212 3.5 20:17:36 10° WNW 20:20:21 47° SW 20:20:21 47° SW
STARLINK-1105 3.5 20:18:02 10° WNW 20:20:48 46° SW 20:20:48 46° SW
Meteor 2-12 Rocket 4.5 20:15:07 10° N 20:21:10 60° ENE 20:23:32 36° SE
STARLINK-1143 3.5 20:17:17 10° WNW 20:21:27 85° NNE 20:22:15 57° ESE
STARLINK-1206 3.6 20:18:31 10° WNW 20:21:13 45° SW 20:21:13 45° SW
STARLINK-1247 3.6 20:18:59 10° WNW 20:21:39 45° WSW 20:21:39 45° WSW
STARLINK-1227 3.6 20:19:23 10° WNW 20:22:05 45° SW 20:22:05 45° SW
STARLINK-1218 3.7 20:19:53 10° WNW 20:22:31 43° WSW 20:22:31 43° WSW
STARLINK-1226 3.7 20:20:20 10° WNW 20:22:58 43° WSW 20:22:58 43° WSW
STARLINK-1254 3.7 20:20:45 10° WNW 20:23:24 43° WSW 20:23:24 43° WSW
STARLINK-1215 3.7 20:21:14 10° WNW 20:23:49 42° WSW 20:23:49 42° WSW
USA 245 4.3 20:21:27 32° SSE 20:24:19 82° ENE 20:30:46 10° NNW
STARLINK-1231 3.8 20:21:41 10° WNW 20:24:15 41° WSW 20:24:15 41° WSW
SL-8 Rocket 4.0 20:18:57 10° N 20:25:19 85° W 20:29:12 25° S
STARLINK-1232 3.8 20:22:37 10° WNW 20:25:08 40° WSW 20:25:08 40° WSW
Cosmos 2181 Rocket 3.9 20:20:34 14° S 20:25:59 83° E 20:32:11 10° N
STARLINK-1217 3.8 20:23:02 10° WNW 20:25:33 40° WSW 20:25:33 40° WSW
STARLINK-1241 3.5 20:22:18 10° WNW 20:26:28 90° NE 20:27:03 65° ESE
STARLINK-1208 3.8 20:23:27 10° WNW 20:26:00 40° WSW 20:26:00 40° WSW
STARLINK-1229 3.9 20:23:57 10° WNW 20:26:25 39° WSW 20:26:25 39° WSW
STARLINK-1271 3.9 20:24:23 10° WNW 20:26:50 39° WSW 20:26:50 39° WSW
Cosmos 676 Rocket 4.0 20:22:19 10° SSW 20:27:37 82° WNW 20:32:54 10° NNE
STARLINK-1270 4.0 20:24:52 10° WNW 20:27:17 38° WSW 20:27:17 38° WSW
Cosmos 864 Rocket 4.4 20:21:37 10° N 20:27:52 80° E 20:30:44 34° SSE
STARLINK-1154 4.0 20:25:18 10° WNW 20:27:43 37° WSW 20:27:43 37° WSW
ERS-1 Rocket 3.2 20:27:20 43° ESE 20:28:25 51° ENE 20:33:17 10° N
Cosmos 1455 4.0 20:30:11 20° NE 20:30:11 20° NE 20:31:50 10° NNE
STARLINK-1197 4.0 20:26:13 10° WNW 20:28:35 36° WSW 20:28:35 36° WSW
Cosmos 1656 3.9 20:23:39 10° NNW 20:29:17 58° ENE 20:30:56 42° ESE
STARLINK-1189 4.1 20:26:41 10° WNW 20:29:01 36° WSW 20:29:01 36° WSW
STARLINK-1198 4.1 20:27:07 10° WNW 20:29:27 36° WSW 20:29:27 36° WSW
Cosmos 1812 Rocket 3.4 20:29:46 58° SSE 20:30:30 72° E 20:34:50 10° NNE
STARLINK-1188 4.1 20:27:35 10° WNW 20:29:53 35° WSW 20:29:53 35° WSW
Cosmos 1980 Rocket 3.6 20:26:06 10° NNW 20:30:44 25° NE 20:32:34 22° ENE
STARLINK-1235 4.4 20:28:15 10° WNW 20:30:31 30° WSW 20:30:31 30° WSW
STARLINK-1239 3.4 20:27:14 10° WNW 20:31:24 86° SSW 20:31:48 72° SE
STARLINK-1187 4.3 20:28:41 10° WNW 20:30:59 32° WSW 20:30:59 32° WSW
Cosmos 1892 2.6 20:28:06 10° N 20:32:00 70° E 20:32:00 70° E
STARLINK-1199 4.2 20:29:31 10° WNW 20:31:48 34° WSW 20:31:48 34° WSW
STARLINK-1191 4.2 20:29:58 10° WNW 20:32:15 33° WSW 20:32:15 33° WSW
STARLINK-1210 4.2 20:30:25 10° WNW 20:32:40 33° WSW 20:32:40 33° WSW
STARLINK-1221 4.3 20:30:53 10° WNW 20:33:07 33° WSW 20:33:07 33° WSW
STARLINK-1219 4.3 20:31:19 10° WNW 20:33:32 32° WSW 20:33:32 32° WSW
SPOT 5 3.0 20:34:13 44° ENE 20:34:20 44° ENE 20:38:27 10° N
STARLINK-1222 4.3 20:31:47 10° WNW 20:33:58 32° WSW 20:33:58 32° WSW
STARLINK-1211 4.3 20:32:15 10° WNW 20:34:24 31° WSW 20:34:24 31° WSW
STARLINK-60 3.5 20:31:56 10° W 20:34:55 59° NW 20:34:55 59° NW
STARLINK-1214 4.4 20:32:41 10° WNW 20:34:50 31° WSW 20:34:50 31° WSW
STARLINK-1245 4.4 20:33:11 10° WNW 20:35:16 30° WSW 20:35:16 30° WSW
STARLINK-1240 3.4 20:32:14 10° WNW 20:36:24 82° SSW 20:36:36 78° SSE
STARLINK-1238 4.4 20:33:35 10° WNW 20:35:42 30° WSW 20:35:42 30° WSW
Cosmos 220 Rocket 4.1 20:33:07 10° NNW 20:37:27 69° WSW 20:38:14 55° SSW
STARLINK-1205 4.5 20:34:33 10° WNW 20:36:34 29° WSW 20:36:34 29° WSW
Cosmos 2366 rocket 3.9 20:32:01 10° N 20:38:12 85° W 20:41:06 34° S
STARLINK-1216 3.5 20:37:14 10° WNW 20:41:23 78° SSW 20:41:23 78° SSW
Cosmos 1825 3.4 20:38:29 10° N 20:41:04 31° NE 20:41:04 31° NE
Terra 2.3 20:42:27 42° ENE 20:42:39 42° ENE 20:47:08 10° N
ATLAS 5 CENTAUR R/B 2.4 20:39:42 10° WSW 20:43:52 52° NW 20:48:38 10° NE
Abrixas rocket 4.5 20:42:06 10° W 20:43:05 17° WSW 20:43:05 17° WSW
STARLINK-1237 3.6 20:42:12 10° WNW 20:46:09 72° SW 20:46:09 72° SW
Cosmos 2058 3.2 20:46:16 10° NNW 20:50:20 59° W 20:50:47 55° SW
Cosmos 2151 3.3 20:46:10 10° N 20:49:51 54° NE 20:49:51 54° NE
Nadezhda 3 Rocket 4.3 20:50:21 45° ESE 20:50:59 46° E 20:56:56 10° NNE
STARLINK-1202 3.8 20:47:12 10° WNW 20:50:57 64° WSW 20:50:57 64° WSW
RESURS DK-1 2.7 20:49:31 10° NNW 20:53:17 56° NNE 20:53:17 56° NNE
SPOT 1/Viking Rocket 3.5 20:52:37 53° S 20:53:51 80° WSW 20:59:07 10° NNW
Cosmos 1300 4.5 20:52:16 15° SW 20:54:50 30° WNW 20:58:16 10° N
Cosmos 1741 Rocket 3.9 20:54:58 65° SSE 20:55:30 70° ESE 21:00:49 10° NNE
Cosmos 2278 4.3 20:52:44 10° NNW 20:58:07 42° NE 20:58:59 39° ENE
Cosmos 1076 Rocket 4.2 20:54:14 10° NNW 20:58:22 49° W 20:59:02 44° SW
SL-4 R/B 2.8 20:55:51 10° W 20:58:16 40° WNW 20:58:16 40° WNW
Cosmos 2208 Rocket 3.9 20:55:15 10° NNW 21:00:27 66° ENE 21:00:47 64° E
Cosmos 2082 Rocket 4.1 21:03:59 16° ENE 21:03:59 16° ENE 21:05:32 10° NE
STARLINK-1246 4.2 20:57:11 10° WNW 21:00:32 50° WSW 21:00:32 50° WSW
STARLINK-1203 4.3 20:58:02 10° WNW 21:01:25 48° WSW 21:01:25 48° WSW
STARLINK-1224 4.4 21:02:09 10° WNW 21:05:18 45° W 21:05:18 45° W
Cosmos 1763 Rocket 3.6 21:04:49 10° NNW 21:09:58 64° WSW 21:10:29 60° SW
Cosmos 1833 Rocket 3.7 21:13:44 33° ENE 21:13:44 33° ENE 21:17:09 10° NE
Cosmos 489 Rocket 4.4 21:07:21 10° NNW 21:13:36 84° WSW 21:14:41 63° S
Cosmos 2239 Rocket 4.4 21:09:12 10° N 21:15:27 70° ENE 21:16:11 64° ESE
BREEZE M DEB (TANK) 3.6 21:13:17 10° WSW 21:17:32 78° SSE 21:32:33 10° ENE
Cosmos 1814 Rocket 3.9 21:14:01 10° NNW 21:19:25 80° ENE 21:19:27 80° ENE
Cosmos 540 Rocket 3.4 21:14:15 10° NNW 21:19:20 80° NE 21:19:20 80° NE
Cosmos 1821 Rocket 3.9 21:13:10 10° N 21:19:35 84° E 21:20:35 66° SSE
Cosmos-2242 3.6 21:21:21 54° N 21:21:21 54° N 21:24:46 10° N
COSMOS 2406 3.0 21:21:00 80° SE 21:21:08 81° ESE 21:26:53 10° NNE
Meteor 2-10 Rocket 3.4 21:23:20 88° WSW 21:23:23 88° W 21:28:51 10° NNE
Iridium 4 Rocket 4.4 21:20:30 10° NNW 21:24:14 31° W 21:24:45 30° W
Cosmos 1934 Rocket 4.0 21:18:09 10° N 21:24:22 59° ENE 21:24:38 58° E
USA 234 3.1 21:18:53 10° ENE 21:25:28 87° SSE 21:32:02 10° WSW
USA 32 4.4 21:25:39 10° NNW 21:30:47 57° W 21:31:15 55° WSW
Cosmos 1605 Rocket 4.3 21:32:45 10° N 21:38:36 50° ENE 21:38:36 50° ENE
Cosmos 2369 3.7 21:34:36 10° NNW 21:40:06 77° W 21:40:06 77° W
CZ-4C R/B 2.9 21:33:24 10° NW 21:40:24 73° NE 21:41:59 58° ESE
ASTEX 1 3.8 21:44:36 61° N 21:44:36 61° N 21:48:42 10° N
Cosmos 1697 Rocket 2.8 21:40:23 10° NNW 21:45:47 69° W 21:45:47 69° W
Cosmos 841 Rocket 4.0 21:42:07 10° NNW 21:46:53 54° W 21:46:53 54° W
Mayak 0.6 21:45:55 10° NNE 21:47:46 25° NNE 21:47:46 25° NNE
ATLAS CENTAUR R/B 3.3 21:51:12 10° NW 21:52:56 25° NW 21:52:56 25° NW
SL-16 R/B 3.2 21:59:00 10° NNW 22:04:13 37° NE 22:04:13 37° NE
Cosmos 2360 Rocket 4.0 22:03:04 10° N 22:07:25 22° NE 22:08:30 21° ENE
Meteor 2-3 Rocket 4.1 22:05:49 10° NNW 22:11:01 60° WNW 22:11:01 60° WNW
Cosmos 2322 Rocket 3.3 22:07:28 10° NNW 22:12:34 36° NE 22:12:34 36° NE
Cosmos 1980 Rocket 2.6 22:09:41 10° NNW 22:14:19 59° NW 22:14:19 59° NW
Terra 3.5 22:21:20 26° WNW 22:21:20 26° WNW 22:24:36 10° NW
ATLAS 5 CENTAUR R/B 4.3 22:26:17 10° WNW 22:29:41 20° NNW 22:33:26 10° NNE
Thor Agena Rocket 4.4 22:35:50 10° N 22:39:38 46° NNW 22:39:38 46° NNW
Cosmos 2082 Rocket 2.8 22:45:47 53° N 22:45:47 53° N 22:50:23 10° NNE
Cosmos 1459 Rocket 4.3 22:44:10 10° N 22:49:42 60° NE 22:49:42 60° NE
Cosmos 1833 Rocket 3.8 22:55:21 37° WNW 22:55:50 38° NW 23:01:07 10° NNE
Cosmos 2344 4.4 22:46:48 10° NW 22:56:20 69° SW 22:58:33 59° S
Cosmos 1727 Rocket 4.2 22:58:39 67° N 22:58:39 67° N 23:04:06 10° N
Cosmos 2219 Rocket 4.1 23:01:32 10° N 23:05:54 22° NE 23:07:20 20° ENE
Cosmos 2016 Rocket 4.4 23:01:20 10° N 23:06:48 56° NE 23:06:48 56° NE
USA 234 3.9 23:01:58 10° ENE 23:08:15 52° NNW 23:14:33 10° W
Cosmos 1802 Rocket 4.3 23:02:47 10° N 23:07:59 60° NNE 23:07:59 60° NNE
Cosmos 2100 Rocket 4.3 23:07:47 10° N 23:12:57 63° NNW 23:12:57 63° NNW
Cosmos 2173 Rocket 4.4 23:16:57 10° NNW 23:21:50 58° NNW 23:21:50 58° NNW
Mayak 1.5 23:22:52 10° NNW 23:24:21 14° NW 23:24:21 14° NW
COSMOS 2428 4.3 23:22:11 10° NNW 23:27:04 28° NE 23:28:05 27° ENE
CZ-4C R/B 3.9 23:22:16 10° NW 23:27:10 33° W 23:27:10 33° W
MOS 1-B Rocket 4.3 23:40:54 10° NNE 23:46:30 73° NNW 23:46:30 73° NNW
SL-16 R/B 3.6 23:43:06 10° NW 23:46:05 29° NW 23:46:05 29° NW
Cosmos 2360 Rocket 3.1 23:46:32 10° NNW 23:50:15 43° NNW 23:50:15 43° NNW
